Location: Antichan
(42.9728°N, 0.6667°E)
Time: 10:18:13
(UTC+00:00)

ATLAS 5 CENTAUR R/B - Pass Details

Date: 15 August 2020
Orbit: 267 x 14299 km, 60.7° (Epoch: 18 September)

Event Time Altitude Azimuth Distance (km) Brightness Sun altitude
Rises 20:58:43 0° 337° (NNW) 2,092 6.0 -19.6°
Reaches altitude 10° 21:00:27 10° 360° (N) 1,519 4.6 -19.8°
Maximum altitude 21:02:50 20° 52° (NE) 1,469 3.9 -20.1°
Enters shadow 21:04:04 18° 73° (ENE) 1,812 4.1 -20.3°
